Time,TemperatureF,DewpointF,PressureIn,WindDirection,WindDirectionDegrees,WindSpeedMPH,WindSpeedGustMPH,Humidity,HourlyPrecipIn,Conditions,Clouds,dailyrainin,SoftwareType,DateUTC
2013-04-28 00:03:00,75.0,68.0,30.13,ENE,67,3.0,8.0,80,0.00,,,0.00,,2013-04-28 04:03:00,
2013-04-28 00:13:00,75.0,68.0,30.13,ENE,67,3.0,8.0,80,0.00,,,0.00,,2013-04-28 04:13:00,
2013-04-28 00:23:00,75.0,68.0,30.13,NE,47,1.0,5.0,80,0.00,,,0.00,,2013-04-28 04:23:00,
2013-04-28 00:32:00,75.0,68.0,30.12,East,86,2.0,5.0,80,0.00,,,0.00,,2013-04-28 04:32:00,
2013-04-28 00:43:00,75.0,68.0,30.12,East,86,2.0,5.0,80,0.00,,,0.00,,2013-04-28 04:43:00,
2013-04-28 00:53:00,75.0,67.0,30.12,East,90,3.0,11.0,76,0.00,,,0.00,,2013-04-28 04:53:00,
2013-04-28 01:02:00,75.0,67.0,30.11,NNW,344,2.0,6.0,76,0.00,,,0.00,,2013-04-28 05:02:00,
2013-04-28 01:12:00,75.0,67.0,30.11,NNW,344,2.0,6.0,76,0.00,,,0.00,,2013-04-28 05:12:00,
2013-04-28 01:22:00,76.0,67.0,30.11,East,92,2.0,5.0,75,0.00,,,0.00,,2013-04-28 05:22:00,
2013-04-28 01:32:00,76.0,67.0,30.11,ENE,77,3.0,6.0,74,0.00,,,0.00,,2013-04-28 05:32:00,
2013-04-28 01:42:00,76.0,67.0,30.11,ENE,77,3.0,6.0,74,0.00,,,0.00,,2013-04-28 05:42:00,
2013-04-28 01:52:00,75.0,66.0,30.10,ESE,113,4.0,10.0,74,0.00,,,0.00,,2013-04-28 05:52:00,
2013-04-28 02:01:00,75.0,66.0,30.10,East,98,1.0,5.0,74,0.00,,,0.00,,2013-04-28 06:01:00,
2013-04-28 02:12:00,75.0,66.0,30.10,East,98,1.0,5.0,74,0.00,,,0.00,,2013-04-28 06:12:00,
2013-04-28 02:21:00,75.0,66.0,30.09,ESE,108,2.0,6.0,73,0.00,,,0.00,,2013-04-28 06:21:00,
2013-04-28 02:32:00,75.0,67.0,30.09,ENE,75,2.0,6.0,75,0.00,,,0.00,,2013-04-28 06:32:00,
2013-04-28 02:42:00,75.0,67.0,30.09,ENE,75,2.0,6.0,75,0.00,,,0.00,,2013-04-28 06:42:00,
2013-04-28 02:52:00,74.0,66.0,30.09,East,79,1.0,6.0,75,0.00,,,0.00,,2013-04-28 06:52:00,
2013-04-28 03:01:00,74.0,66.0,30.09,East,87,1.0,4.0,76,0.00,,,0.00,,2013-04-28 07:01:00,
2013-04-28 03:11:00,74.0,66.0,30.09,East,87,1.0,4.0,76,0.00,,,0.00,,2013-04-28 07:11:00,
2013-04-28 03:21:00,74.0,66.0,30.09,East,92,0.0,4.0,76,0.00,,,0.00,,2013-04-28 07:21:00,
2013-04-28 03:32:00,74.0,66.0,30.09,East,79,1.0,3.0,76,0.00,,,0.00,,2013-04-28 07:32:00,
2013-04-28 03:42:00,74.0,66.0,30.09,East,79,1.0,3.0,76,0.00,,,0.00,,2013-04-28 07:42:00,
2013-04-28 03:52:00,74.0,66.0,30.08,East,79,1.0,5.0,76,0.00,,,0.00,,2013-04-28 07:52:00,
2013-04-28 04:02:00,74.0,66.0,30.08,East,91,2.0,5.0,76,0.00,,,0.00,,2013-04-28 08:02:00,
2013-04-28 04:11:00,74.0,66.0,30.08,East,91,2.0,5.0,76,0.00,,,0.00,,2013-04-28 08:11:00,
2013-04-28 04:21:00,74.0,66.0,30.07,East,89,1.0,4.0,76,0.00,,,0.00,,2013-04-28 08:21:00,
2013-04-28 04:32:00,74.0,66.0,30.07,ENE,75,1.0,3.0,77,0.00,,,0.00,,2013-04-28 08:32:00,
2013-04-28 04:42:00,74.0,66.0,30.07,ENE,75,1.0,3.0,77,0.00,,,0.00,,2013-04-28 08:42:00,
2013-04-28 04:52:00,74.0,66.0,30.07,ENE,75,1.0,6.0,77,0.00,,,0.00,,2013-04-28 08:52:00,
2013-04-28 05:01:00,74.0,66.0,30.06,ESE,104,1.0,7.0,77,0.00,,,0.00,,2013-04-28 09:01:00,
2013-04-28 05:12:00,74.0,66.0,30.06,ESE,104,1.0,7.0,77,0.00,,,0.00,,2013-04-28 09:12:00,
2013-04-28 05:21:00,74.0,66.0,30.06,ESE,108,1.0,6.0,77,0.00,,,0.00,,2013-04-28 09:21:00,
2013-04-28 05:33:00,73.0,66.0,30.06,ESE,117,1.0,6.0,78,0.00,,,0.00,,2013-04-28 09:33:00,
2013-04-28 05:42:00,73.0,66.0,30.06,ESE,117,1.0,6.0,78,0.00,,,0.00,,2013-04-28 09:42:00,
2013-04-28 05:53:00,73.0,66.0,30.06,East,83,1.0,4.0,78,0.00,,,0.00,,2013-04-28 09:53:00,
2013-04-28 06:03:00,73.0,66.0,30.06,East,89,1.0,6.0,78,0.00,,,0.00,,2013-04-28 10:03:00,
2013-04-28 06:12:00,73.0,66.0,30.06,East,89,1.0,6.0,78,0.00,,,0.00,,2013-04-28 10:12:00,
2013-04-28 06:23:00,74.0,66.0,30.06,East,89,2.0,8.0,76,0.00,,,0.00,,2013-04-28 10:23:00,
2013-04-28 06:32:00,74.0,66.0,30.07,SE,124,3.0,6.0,76,0.00,,,0.00,,2013-04-28 10:32:00,
2013-04-28 06:42:00,74.0,66.0,30.07,SE,124,3.0,6.0,76,0.00,,,0.00,,2013-04-28 10:42:00,
2013-04-28 06:53:00,74.0,66.0,30.07,East,82,1.0,6.0,76,0.00,,,0.00,,2013-04-28 10:53:00,
2013-04-28 07:02:00,74.0,66.0,30.08,East,80,1.0,5.0,76,0.00,,,0.00,,2013-04-28 11:02:00,
2013-04-28 07:11:00,74.0,66.0,30.08,East,80,1.0,5.0,76,0.00,,,0.00,,2013-04-28 11:11:00,
2013-04-28 07:22:00,74.0,66.0,30.08,East,90,2.0,5.0,75,0.00,,,0.00,,2013-04-28 11:22:00,
2013-04-28 07:32:00,74.0,66.0,30.08,East,92,1.0,6.0,75,0.00,,,0.00,,2013-04-28 11:32:00,
2013-04-28 07:42:00,74.0,66.0,30.08,East,92,1.0,6.0,75,0.00,,,0.00,,2013-04-28 11:42:00,
2013-04-28 07:52:00,74.0,66.0,30.09,East,86,2.0,7.0,76,0.00,,,0.00,,2013-04-28 11:52:00,
2013-04-28 08:02:00,75.0,67.0,30.09,East,94,3.0,6.0,75,0.00,,,0.00,,2013-04-28 12:02:00,
2013-04-28 08:12:00,75.0,67.0,30.09,East,94,3.0,6.0,75,0.00,,,0.00,,2013-04-28 12:12:00,
2013-04-28 08:21:00,75.0,66.0,30.09,ESE,111,3.0,10.0,74,0.00,,,0.00,,2013-04-28 12:21:00,
2013-04-28 08:32:00,76.0,66.0,30.09,East,92,4.0,10.0,71,0.00,,,0.00,,2013-04-28 12:32:00,
2013-04-28 08:42:00,76.0,66.0,30.09,East,92,4.0,10.0,71,0.00,,,0.00,,2013-04-28 12:42:00,
2013-04-28 08:52:00,77.0,66.0,30.09,ENE,75,5.0,9.0,70,0.00,,,0.00,,2013-04-28 12:52:00,
2013-04-28 09:02:00,78.0,66.0,30.10,East,79,3.0,9.0,67,0.00,,,0.00,,2013-04-28 13:02:00,
2013-04-28 09:11:00,78.0,66.0,30.10,East,79,3.0,9.0,67,0.00,,,0.00,,2013-04-28 13:11:00,
2013-04-28 09:21:00,78.0,67.0,30.10,East,92,4.0,10.0,68,0.00,,,0.00,,2013-04-28 13:21:00,
2013-04-28 09:32:00,79.0,67.0,30.10,SW,236,1.0,11.0,67,0.00,,,0.00,,2013-04-28 13:32:00,
2013-04-28 09:42:00,79.0,67.0,30.10,SW,236,1.0,11.0,67,0.00,,,0.00,,2013-04-28 13:42:00,
2013-04-28 09:52:00,79.0,67.0,30.10,ENE,74,3.0,10.0,67,0.00,,,0.00,,2013-04-28 13:52:00,
2013-04-28 10:02:00,79.0,67.0,30.10,East,85,6.0,12.0,66,0.00,,,0.00,,2013-04-28 14:02:00,
2013-04-28 10:11:00,79.0,67.0,30.10,East,85,6.0,12.0,66,0.00,,,0.00,,2013-04-28 14:11:00,
2013-04-28 10:22:00,79.0,67.0,30.10,ENE,72,5.0,13.0,67,0.00,,,0.00,,2013-04-28 14:22:00,
2013-04-28 10:32:00,80.0,67.0,30.11,East,91,2.0,7.0,64,0.00,,,0.00,,2013-04-28 14:32:00,
2013-04-28 10:42:00,80.0,67.0,30.11,East,91,2.0,7.0,64,0.00,,,0.00,,2013-04-28 14:42:00,
2013-04-28 10:52:00,80.0,66.0,30.11,East,84,3.0,12.0,63,0.00,,,0.00,,2013-04-28 14:52:00,
2013-04-28 11:02:00,81.0,68.0,30.11,ENE,77,3.0,8.0,64,0.00,,,0.00,,2013-04-28 15:02:00,
2013-04-28 11:12:00,81.0,68.0,30.11,ENE,77,3.0,8.0,64,0.00,,,0.00,,2013-04-28 15:12:00,
2013-04-28 11:21:00,81.0,69.0,30.11,East,81,2.0,9.0,66,0.00,,,0.00,,2013-04-28 15:21:00,
2013-04-28 11:32:00,81.0,68.0,30.11,East,99,2.0,8.0,64,0.00,,,0.00,,2013-04-28 15:32:00,
2013-04-28 11:42:00,81.0,68.0,30.11,East,99,2.0,8.0,64,0.00,,,0.00,,2013-04-28 15:42:00,
2013-04-28 11:53:00,80.0,67.0,30.11,East,79,4.0,11.0,65,0.00,,,0.00,,2013-04-28 15:53:00,
2013-04-28 12:03:00,80.0,67.0,30.10,East,94,4.0,11.0,64,0.00,,,0.00,,2013-04-28 16:03:00,
2013-04-28 12:13:00,80.0,67.0,30.10,East,94,4.0,11.0,64,0.00,,,0.00,,2013-04-28 16:13:00,
2013-04-28 12:23:00,81.0,67.0,30.11,ENE,72,0.0,9.0,63,0.00,,,0.00,,2013-04-28 16:23:00,
2013-04-28 12:33:00,81.0,67.0,30.11,East,98,4.0,9.0,62,0.00,,,0.00,,2013-04-28 16:33:00,
2013-04-28 12:42:00,81.0,67.0,30.11,East,98,4.0,9.0,62,0.00,,,0.00,,2013-04-28 16:42:00,
2013-04-28 12:52:00,82.0,67.0,30.11,ENE,74,4.0,9.0,61,0.00,,,0.00,,2013-04-28 16:52:00,
2013-04-28 13:02:00,83.0,67.0,30.11,East,84,4.0,10.0,59,0.00,,,0.00,,2013-04-28 17:02:00,
2013-04-28 13:12:00,83.0,67.0,30.11,East,84,4.0,10.0,59,0.00,,,0.00,,2013-04-28 17:12:00,
2013-04-28 13:22:00,83.0,68.0,30.10,East,79,6.0,13.0,60,0.00,,,0.00,,2013-04-28 17:22:00,
2013-04-28 13:32:00,83.0,68.0,30.10,East,98,6.0,11.0,60,0.00,,,0.00,,2013-04-28 17:32:00,
2013-04-28 13:42:00,83.0,68.0,30.10,East,98,6.0,11.0,60,0.00,,,0.00,,2013-04-28 17:42:00,
2013-04-28 13:52:00,82.0,68.0,30.10,ESE,114,3.0,12.0,63,0.00,,,0.00,,2013-04-28 17:52:00,
2013-04-28 14:02:00,83.0,67.0,30.10,ESE,106,6.0,11.0,59,0.00,,,0.00,,2013-04-28 18:02:00,
2013-04-28 14:12:00,83.0,67.0,30.10,ESE,106,6.0,11.0,59,0.00,,,0.00,,2013-04-28 18:12:00,
2013-04-28 14:22:00,82.0,66.0,30.09,ENE,67,2.0,12.0,59,0.00,,,0.00,,2013-04-28 18:22:00,
2013-04-28 14:32:00,83.0,67.0,30.09,NNE,31,3.0,11.0,59,0.00,,,0.00,,2013-04-28 18:32:00,
2013-04-28 14:42:00,83.0,67.0,30.09,NNE,31,3.0,11.0,59,0.00,,,0.00,,2013-04-28 18:42:00,
2013-04-28 14:52:00,82.0,67.0,30.08,SE,125,2.0,9.0,60,0.00,,,0.00,,2013-04-28 18:52:00,
2013-04-28 15:02:00,82.0,65.0,30.09,East,86,5.0,13.0,57,0.00,,,0.00,,2013-04-28 19:02:00,
2013-04-28 15:11:00,82.0,65.0,30.09,East,86,5.0,13.0,57,0.00,,,0.00,,2013-04-28 19:11:00,
2013-04-28 15:22:00,82.0,65.0,30.08,ESE,105,3.0,10.0,57,0.00,,,0.00,,2013-04-28 19:22:00,
2013-04-28 15:32:00,83.0,66.0,30.07,NE,37,4.0,12.0,56,0.00,,,0.00,,2013-04-28 19:32:00,
2013-04-28 15:42:00,83.0,66.0,30.07,NE,37,4.0,12.0,56,0.00,,,0.00,,2013-04-28 19:42:00,
2013-04-28 15:52:00,83.0,66.0,30.06,ENE,74,5.0,16.0,57,0.00,,,0.00,,2013-04-28 19:52:00,
2013-04-28 16:02:00,82.0,66.0,30.05,ESE,103,7.0,12.0,59,0.00,,,0.00,,2013-04-28 20:02:00,
2013-04-28 16:12:00,82.0,66.0,30.05,ESE,103,7.0,12.0,59,0.00,,,0.00,,2013-04-28 20:12:00,
2013-04-28 16:22:00,82.0,66.0,30.05,ESE,103,7.0,12.0,59,0.00,,,0.00,,2013-04-28 20:22:00,
2013-04-28 16:32:00,82.0,67.0,30.04,ESE,115,4.0,11.0,61,0.00,,,0.00,,2013-04-28 20:32:00,
2013-04-28 16:42:00,82.0,67.0,30.04,ESE,115,4.0,11.0,61,0.00,,,0.00,,2013-04-28 20:42:00,
2013-04-28 16:52:00,82.0,68.0,30.03,East,79,4.0,11.0,62,0.00,,,0.00,,2013-04-28 20:52:00,
2013-04-28 17:01:00,82.0,67.0,30.03,NNE,25,5.0,12.0,61,0.00,,,0.00,,2013-04-28 21:01:00,
2013-04-28 17:11:00,82.0,67.0,30.03,NNE,25,5.0,12.0,61,0.00,,,0.00,,2013-04-28 21:11:00,
2013-04-28 17:22:00,82.0,68.0,30.03,NE,50,2.0,12.0,62,0.00,,,0.00,,2013-04-28 21:22:00,
2013-04-28 17:33:00,82.0,68.0,30.03,ESE,119,3.0,9.0,62,0.00,,,0.00,,2013-04-28 21:33:00,
2013-04-28 17:42:00,82.0,68.0,30.03,ESE,119,3.0,9.0,62,0.00,,,0.00,,2013-04-28 21:42:00,
2013-04-28 17:52:00,81.0,68.0,30.02,East,91,2.0,13.0,64,0.00,,,0.00,,2013-04-28 21:52:00,
2013-04-28 18:03:00,81.0,67.0,30.02,ESE,112,2.0,10.0,62,0.00,,,0.00,,2013-04-28 22:03:00,
2013-04-28 18:13:00,81.0,67.0,30.02,ESE,112,2.0,10.0,62,0.00,,,0.00,,2013-04-28 22:13:00,
2013-04-28 18:23:00,81.0,68.0,30.01,ENE,63,3.0,9.0,64,0.00,,,0.00,,2013-04-28 22:23:00,
2013-04-28 18:33:00,80.0,66.0,30.01,ENE,70,3.0,9.0,63,0.00,,,0.00,,2013-04-28 22:33:00,
2013-04-28 18:42:00,80.0,66.0,30.01,ENE,70,3.0,9.0,63,0.00,,,0.00,,2013-04-28 22:42:00,
2013-04-28 18:52:00,80.0,67.0,30.01,ESE,110,6.0,11.0,64,0.00,,,0.00,,2013-04-28 22:52:00,
2013-04-28 19:02:00,80.0,67.0,30.01,East,89,4.0,9.0,65,0.00,,,0.00,,2013-04-28 23:02:00,
2013-04-28 19:12:00,80.0,67.0,30.01,East,89,4.0,9.0,65,0.00,,,0.00,,2013-04-28 23:12:00,
2013-04-28 19:22:00,79.0,66.0,30.01,ESE,103,4.0,9.0,64,0.00,,,0.00,,2013-04-28 23:22:00,
2013-04-28 19:32:00,78.0,66.0,30.02,ESE,114,3.0,7.0,66,0.00,,,0.00,,2013-04-28 23:32:00,
2013-04-28 19:42:00,78.0,66.0,30.02,ESE,114,3.0,7.0,66,0.00,,,0.00,,2013-04-28 23:42:00,
2013-04-28 19:52:00,77.0,65.0,30.02,East,100,1.0,6.0,67,0.00,,,0.00,,2013-04-28 23:52:00,
2013-04-28 20:01:00,77.0,65.0,30.02,NE,44,3.0,8.0,67,0.00,,,0.00,,2013-04-29 00:01:00,
2013-04-28 20:11:00,77.0,65.0,30.02,NE,44,3.0,8.0,67,0.00,,,0.00,,2013-04-29 00:11:00,
2013-04-28 20:22:00,76.0,64.0,30.02,ENE,68,1.0,7.0,67,0.00,,,0.00,,2013-04-29 00:22:00,
2013-04-28 20:32:00,76.0,64.0,30.02,ESE,105,1.0,5.0,67,0.00,,,0.00,,2013-04-29 00:32:00,
2013-04-28 20:42:00,76.0,64.0,30.02,ESE,105,1.0,5.0,67,0.00,,,0.00,,2013-04-29 00:42:00,
2013-04-28 20:52:00,76.0,64.0,30.03,East,89,0.0,5.0,67,0.00,,,0.00,,2013-04-29 00:52:00,
2013-04-28 21:01:00,76.0,65.0,30.02,East,82,2.0,6.0,68,0.00,,,0.00,,2013-04-29 01:01:00,
2013-04-28 21:12:00,76.0,65.0,30.03,East,85,0.0,3.0,68,0.00,,,0.00,,2013-04-29 01:12:00,
2013-04-28 21:21:00,76.0,65.0,30.03,East,85,0.0,3.0,68,0.00,,,0.00,,2013-04-29 01:21:00,
2013-04-28 21:32:00,75.0,64.0,30.03,East,91,0.0,2.0,69,0.00,,,0.00,,2013-04-29 01:32:00,
2013-04-28 21:42:00,75.0,64.0,30.03,East,91,0.0,2.0,69,0.00,,,0.00,,2013-04-29 01:42:00,
2013-04-28 21:52:00,75.0,63.0,30.03,East,80,1.0,9.0,67,0.00,,,0.00,,2013-04-29 01:52:00,
2013-04-28 22:02:00,75.0,63.0,30.04,East,93,2.0,4.0,66,0.00,,,0.00,,2013-04-29 02:02:00,
2013-04-28 22:11:00,75.0,63.0,30.04,East,93,2.0,4.0,66,0.00,,,0.00,,2013-04-29 02:11:00,
2013-04-28 22:22:00,75.0,63.0,30.04,East,89,1.0,4.0,67,0.00,,,0.00,,2013-04-29 02:22:00,
2013-04-28 22:32:00,75.0,63.0,30.04,East,90,0.0,3.0,67,0.00,,,0.00,,2013-04-29 02:32:00,
2013-04-28 22:42:00,75.0,63.0,30.04,East,90,0.0,3.0,67,0.00,,,0.00,,2013-04-29 02:42:00,
2013-04-28 22:52:00,75.0,64.0,30.04,East,87,1.0,4.0,68,0.00,,,0.00,,2013-04-29 02:52:00,
2013-04-28 23:01:00,75.0,64.0,30.05,East,98,2.0,6.0,69,0.00,,,0.00,,2013-04-29 03:01:00,
2013-04-28 23:12:00,75.0,64.0,30.05,East,98,2.0,6.0,69,0.00,,,0.00,,2013-04-29 03:12:00,
2013-04-28 23:21:00,76.0,65.0,30.04,ENE,73,2.0,8.0,69,0.00,,,0.00,,2013-04-29 03:21:00,
2013-04-28 23:33:00,76.0,65.0,30.04,NE,54,4.0,10.0,70,0.00,,,0.00,,2013-04-29 03:33:00,
2013-04-28 23:42:00,76.0,65.0,30.04,NE,54,4.0,10.0,70,0.00,,,0.00,,2013-04-29 03:42:00,
2013-04-28 23:53:00,76.0,65.0,30.04,East,96,2.0,6.0,70,0.00,,,0.00,,2013-04-29 03:53:00,